Time,TemperatureF,DewpointF,PressureIn,WindDirection,WindDirectionDegrees,WindSpeedMPH,WindSpeedGustMPH,Humidity,HourlyPrecipIn,Conditions,Clouds,dailyrainin,SoftwareType,DateUTC
2013-04-28 00:03:00,58.0,-99.9,30.19,South,187,0.0,-999.0,84,-99.99,,,-99.99,,2013-04-28 04:03:00,
2013-04-28 00:13:00,58.0,53.0,30.19,South,187,0.0,-999.0,84,-99.99,,,-99.99,,2013-04-28 04:13:00,
2013-04-28 00:23:00,58.0,54.0,30.18,South,187,0.0,-999.0,85,-99.99,,,-99.99,,2013-04-28 04:23:00,
2013-04-28 00:32:00,58.0,54.0,30.18,South,187,0.0,-999.0,85,-99.99,,,-99.99,,2013-04-28 04:32:00,
2013-04-28 00:43:00,58.0,54.0,30.18,South,187,0.0,-999.0,85,-99.99,,,-99.99,,2013-04-28 04:43:00,
2013-04-28 00:53:00,57.0,53.0,30.18,South,187,0.0,-999.0,85,-99.99,,,-99.99,,2013-04-28 04:53:00,
2013-04-28 01:02:00,57.0,53.0,30.18,South,187,0.0,-999.0,86,-99.99,,,-99.99,,2013-04-28 05:02:00,
2013-04-28 01:12:00,57.0,53.0,30.18,South,187,0.0,-999.0,86,-99.99,,,-99.99,,2013-04-28 05:12:00,
2013-04-28 01:22:00,57.0,53.0,30.18,South,187,0.0,-999.0,87,-99.99,,,-99.99,,2013-04-28 05:22:00,
2013-04-28 01:32:00,57.0,53.0,30.17,South,187,0.0,-999.0,88,-99.99,,,-99.99,,2013-04-28 05:32:00,
2013-04-28 01:42:00,57.0,53.0,30.17,South,187,0.0,-999.0,88,-99.99,,,-99.99,,2013-04-28 05:42:00,
2013-04-28 01:52:00,56.0,53.0,30.17,South,187,0.0,-999.0,89,-99.99,,,-99.99,,2013-04-28 05:52:00,
2013-04-28 02:01:00,56.0,53.0,30.16,South,187,0.0,-999.0,90,-99.99,,,-99.99,,2013-04-28 06:01:00,
2013-04-28 02:12:00,56.0,53.0,30.16,South,187,0.0,-999.0,90,-99.99,,,-99.99,,2013-04-28 06:12:00,
2013-04-28 02:21:00,55.0,52.0,30.15,South,187,0.0,-999.0,91,-99.99,,,-99.99,,2013-04-28 06:21:00,
2013-04-28 02:32:00,55.0,53.0,30.15,South,187,0.0,-999.0,93,-99.99,,,-99.99,,2013-04-28 06:32:00,
2013-04-28 02:42:00,55.0,53.0,30.15,South,187,0.0,-999.0,93,-99.99,,,-99.99,,2013-04-28 06:42:00,
2013-04-28 02:52:00,55.0,53.0,30.15,South,187,0.0,-999.0,93,-99.99,,,-99.99,,2013-04-28 06:52:00,
2013-04-28 03:02:00,55.0,53.0,30.14,South,187,0.0,-999.0,93,-99.99,,,-99.99,,2013-04-28 07:02:00,
2013-04-28 03:11:00,55.0,53.0,30.14,South,187,0.0,-999.0,93,-99.99,,,-99.99,,2013-04-28 07:11:00,
2013-04-28 03:21:00,55.0,53.0,30.14,South,187,0.0,-999.0,94,-99.99,,,-99.99,,2013-04-28 07:21:00,
2013-04-28 03:32:00,55.0,53.0,30.14,South,187,0.0,-999.0,94,-99.99,,,-99.99,,2013-04-28 07:32:00,
2013-04-28 03:42:00,55.0,53.0,30.14,South,187,0.0,-999.0,94,-99.99,,,-99.99,,2013-04-28 07:42:00,
2013-04-28 03:52:00,55.0,54.0,30.12,South,187,0.0,-999.0,95,-99.99,,,-99.99,,2013-04-28 07:52:00,
2013-04-28 04:02:00,55.0,54.0,30.11,South,187,0.0,-999.0,95,-99.99,,,-99.99,,2013-04-28 08:02:00,
2013-04-28 04:11:00,55.0,54.0,30.11,South,187,0.0,-999.0,95,-99.99,,,-99.99,,2013-04-28 08:11:00,
2013-04-28 04:21:00,55.0,54.0,30.11,South,187,0.0,-999.0,96,-99.99,,,-99.99,,2013-04-28 08:21:00,
2013-04-28 04:32:00,55.0,54.0,30.11,South,187,0.0,-999.0,96,-99.99,,,-99.99,,2013-04-28 08:32:00,
2013-04-28 04:42:00,55.0,54.0,30.11,South,187,0.0,-999.0,96,-99.99,,,-99.99,,2013-04-28 08:42:00,
2013-04-28 04:52:00,56.0,55.0,30.11,South,187,0.0,-999.0,96,-99.99,,,-99.99,,2013-04-28 08:52:00,
2013-04-28 05:01:00,56.0,55.0,30.11,South,187,0.0,-999.0,96,-99.99,,,-99.99,,2013-04-28 09:01:00,
2013-04-28 05:12:00,56.0,55.0,30.11,South,187,0.0,-999.0,96,-99.99,,,-99.99,,2013-04-28 09:12:00,
2013-04-28 05:21:00,55.0,54.0,30.11,South,187,0.0,-999.0,96,-99.99,,,-99.99,,2013-04-28 09:21:00,
2013-04-28 05:33:00,55.0,54.0,30.11,South,187,0.0,-999.0,96,-99.99,,,-99.99,,2013-04-28 09:33:00,
2013-04-28 05:42:00,55.0,54.0,30.11,South,187,0.0,-999.0,96,-99.99,,,-99.99,,2013-04-28 09:42:00,
2013-04-28 05:53:00,55.0,54.0,30.11,South,187,0.0,-999.0,96,-99.99,,,-99.99,,2013-04-28 09:53:00,
2013-04-28 06:03:00,56.0,55.0,30.12,South,187,0.0,-999.0,97,-99.99,,,-99.99,,2013-04-28 10:03:00,
2013-04-28 06:12:00,56.0,55.0,30.12,South,187,0.0,-999.0,97,-99.99,,,-99.99,,2013-04-28 10:12:00,
2013-04-28 06:22:00,56.0,55.0,30.12,South,187,0.0,-999.0,97,-99.99,,,-99.99,,2013-04-28 10:22:00,
2013-04-28 06:32:00,56.0,55.0,30.12,South,187,0.0,-999.0,97,-99.99,,,-99.99,,2013-04-28 10:32:00,
2013-04-28 06:42:00,56.0,55.0,30.12,South,187,0.0,-999.0,97,-99.99,,,-99.99,,2013-04-28 10:42:00,
2013-04-28 06:52:00,57.0,56.0,30.12,South,187,0.0,-999.0,97,-99.99,,,-99.99,,2013-04-28 10:52:00,
2013-04-28 07:02:00,57.0,56.0,30.12,South,187,0.0,-999.0,97,-99.99,,,-99.99,,2013-04-28 11:02:00,
2013-04-28 07:11:00,57.0,56.0,30.12,South,187,0.0,-999.0,97,-99.99,,,-99.99,,2013-04-28 11:11:00,
2013-04-28 07:22:00,57.0,56.0,30.12,South,187,0.0,-999.0,97,-99.99,,,-99.99,,2013-04-28 11:22:00,
2013-04-28 07:32:00,57.0,56.0,30.12,South,187,0.0,-999.0,97,-99.99,,,-99.99,,2013-04-28 11:32:00,
2013-04-28 07:42:00,57.0,56.0,30.12,South,187,0.0,-999.0,97,-99.99,,,-99.99,,2013-04-28 11:42:00,
2013-04-28 07:52:00,57.0,56.0,30.12,South,187,0.0,-999.0,97,-99.99,,,-99.99,,2013-04-28 11:52:00,
2013-04-28 08:02:00,58.0,57.0,30.12,South,187,0.0,-999.0,97,-99.99,,,-99.99,,2013-04-28 12:02:00,
2013-04-28 08:12:00,58.0,57.0,30.12,South,187,0.0,-999.0,97,-99.99,,,-99.99,,2013-04-28 12:12:00,
2013-04-28 08:21:00,59.0,58.0,30.14,South,187,0.0,-999.0,97,-99.99,,,-99.99,,2013-04-28 12:21:00,
2013-04-28 08:32:00,61.0,60.0,30.13,South,181,0.0,-999.0,97,-99.99,,,-99.99,,2013-04-28 12:32:00,
2013-04-28 08:42:00,61.0,60.0,30.13,South,181,0.0,-999.0,97,-99.99,,,-99.99,,2013-04-28 12:42:00,
2013-04-28 08:52:00,62.0,61.0,30.14,South,181,0.0,-999.0,97,-99.99,,,-99.99,,2013-04-28 12:52:00,
2013-04-28 09:02:00,63.0,62.0,30.14,South,181,0.0,-999.0,97,-99.99,,,-99.99,,2013-04-28 13:02:00,
2013-04-28 09:11:00,63.0,62.0,30.14,South,181,0.0,-999.0,97,-99.99,,,-99.99,,2013-04-28 13:11:00,
2013-04-28 09:21:00,65.0,64.0,30.14,South,180,0.0,-999.0,97,-99.99,,,-99.99,,2013-04-28 13:21:00,
2013-04-28 09:32:00,66.0,65.0,30.14,South,180,0.0,-999.0,96,-99.99,,,-99.99,,2013-04-28 13:32:00,
2013-04-28 09:42:00,66.0,65.0,30.14,South,180,0.0,-999.0,96,-99.99,,,-99.99,,2013-04-28 13:42:00,
2013-04-28 09:52:00,67.0,66.0,30.14,South,180,0.0,-999.0,95,-99.99,,,-99.99,,2013-04-28 13:52:00,
2013-04-28 10:02:00,68.0,66.0,30.13,South,180,0.0,-999.0,93,-99.99,,,-99.99,,2013-04-28 14:02:00,
2013-04-28 10:11:00,68.0,66.0,30.13,South,180,0.0,-999.0,93,-99.99,,,-99.99,,2013-04-28 14:11:00,
2013-04-28 10:22:00,70.0,67.0,30.14,SSW,195,0.0,-999.0,90,-99.99,,,-99.99,,2013-04-28 14:22:00,
2013-04-28 10:32:00,70.0,66.0,30.13,SE,126,0.0,-999.0,88,-99.99,,,-99.99,,2013-04-28 14:32:00,
2013-04-28 10:42:00,70.0,66.0,30.13,SE,126,0.0,-999.0,88,-99.99,,,-99.99,,2013-04-28 14:42:00,
2013-04-28 10:52:00,71.0,67.0,30.14,SSW,192,0.0,-999.0,86,-99.99,,,-99.99,,2013-04-28 14:52:00,
2013-04-28 11:02:00,71.0,67.0,30.14,SE,131,0.0,-999.0,86,-99.99,,,-99.99,,2013-04-28 15:02:00,
2013-04-28 11:12:00,71.0,67.0,30.14,SE,131,0.0,-999.0,86,-99.99,,,-99.99,,2013-04-28 15:12:00,
2013-04-28 11:21:00,71.0,66.0,30.13,SE,132,1.0,-999.0,85,-99.99,,,-99.99,,2013-04-28 15:21:00,
2013-04-28 11:32:00,72.0,67.0,30.12,SSE,149,0.0,-999.0,84,-99.99,,,-99.99,,2013-04-28 15:32:00,
2013-04-28 11:42:00,72.0,67.0,30.12,SSE,149,0.0,-999.0,84,-99.99,,,-99.99,,2013-04-28 15:42:00,
2013-04-28 11:53:00,72.0,66.0,30.13,SE,128,1.0,-999.0,82,-99.99,,,-99.99,,2013-04-28 15:53:00,
2013-04-28 12:03:00,72.0,67.0,30.13,ESE,105,0.0,-999.0,83,-99.99,,,-99.99,,2013-04-28 16:03:00,
2013-04-28 12:13:00,72.0,67.0,30.13,ESE,105,0.0,-999.0,83,-99.99,,,-99.99,,2013-04-28 16:13:00,
2013-04-28 12:23:00,70.0,67.0,30.12,ESE,106,0.0,-999.0,89,-99.99,,,-99.99,,2013-04-28 16:23:00,
2013-04-28 12:33:00,69.0,67.0,30.12,ESE,108,0.0,-999.0,92,-99.99,,,-99.99,,2013-04-28 16:33:00,
2013-04-28 12:42:00,69.0,67.0,30.12,ESE,108,0.0,-999.0,92,-99.99,,,-99.99,,2013-04-28 16:42:00,
2013-04-28 12:52:00,69.0,67.0,30.11,ESE,108,0.0,-999.0,93,-99.99,,,-99.99,,2013-04-28 16:52:00,
2013-04-28 13:02:00,70.0,68.0,30.11,ESE,112,0.0,-999.0,92,-99.99,,,-99.99,,2013-04-28 17:02:00,
2013-04-28 13:12:00,70.0,68.0,30.11,ESE,112,0.0,-999.0,92,-99.99,,,-99.99,,2013-04-28 17:12:00,
2013-04-28 13:22:00,72.0,68.0,30.10,SE,136,0.0,-999.0,86,-99.99,,,-99.99,,2013-04-28 17:22:00,
2013-04-28 13:32:00,73.0,67.0,30.09,ENE,71,1.0,-999.0,82,-99.99,,,-99.99,,2013-04-28 17:32:00,
2013-04-28 13:42:00,73.0,67.0,30.09,ENE,71,1.0,-999.0,82,-99.99,,,-99.99,,2013-04-28 17:42:00,
2013-04-28 13:52:00,72.0,67.0,30.09,SE,132,1.0,-999.0,83,-99.99,,,-99.99,,2013-04-28 17:52:00,
2013-04-28 14:02:00,72.0,67.0,30.09,SE,144,0.0,-999.0,84,-99.99,,,-99.99,,2013-04-28 18:02:00,
2013-04-28 14:12:00,72.0,67.0,30.09,SE,144,0.0,-999.0,84,-99.99,,,-99.99,,2013-04-28 18:12:00,
2013-04-28 14:22:00,72.0,66.0,30.08,East,98,0.0,-999.0,82,-99.99,,,-99.99,,2013-04-28 18:22:00,
2013-04-28 14:32:00,72.0,67.0,30.08,ESE,106,1.0,-999.0,83,-99.99,,,-99.99,,2013-04-28 18:32:00,
2013-04-28 14:42:00,72.0,67.0,30.08,ESE,106,1.0,-999.0,83,-99.99,,,-99.99,,2013-04-28 18:42:00,
2013-04-28 14:52:00,73.0,67.0,30.07,SSE,151,0.0,-999.0,82,-99.99,,,-99.99,,2013-04-28 18:52:00,
2013-04-28 15:02:00,74.0,67.0,30.07,ESE,123,1.0,-999.0,79,-99.99,,,-99.99,,2013-04-28 19:02:00,
2013-04-28 15:11:00,74.0,67.0,30.07,ESE,123,1.0,-999.0,79,-99.99,,,-99.99,,2013-04-28 19:11:00,
2013-04-28 15:22:00,73.0,66.0,30.07,SE,124,1.0,-999.0,80,-99.99,,,-99.99,,2013-04-28 19:22:00,
2013-04-28 15:32:00,74.0,67.0,30.06,SE,130,1.0,-999.0,78,-99.99,,,-99.99,,2013-04-28 19:32:00,
2013-04-28 15:42:00,74.0,67.0,30.06,SE,130,1.0,-999.0,78,-99.99,,,-99.99,,2013-04-28 19:42:00,
2013-04-28 15:52:00,74.0,66.0,30.05,SE,132,1.0,-999.0,77,-99.99,,,-99.99,,2013-04-28 19:52:00,
2013-04-28 16:02:00,75.0,66.0,30.05,WSW,253,2.0,-999.0,74,-99.99,,,-99.99,,2013-04-28 20:02:00,
2013-04-28 16:12:00,75.0,66.0,30.05,WSW,253,2.0,-999.0,74,-99.99,,,-99.99,,2013-04-28 20:12:00,
2013-04-28 16:22:00,75.0,67.0,30.04,SSW,211,2.0,-999.0,75,-99.99,,,-99.99,,2013-04-28 20:22:00,
2013-04-28 16:32:00,75.0,66.0,30.03,WSW,245,2.0,-999.0,74,-99.99,,,-99.99,,2013-04-28 20:32:00,
2013-04-28 16:42:00,75.0,66.0,30.03,WSW,245,2.0,-999.0,74,-99.99,,,-99.99,,2013-04-28 20:42:00,
2013-04-28 16:52:00,74.0,66.0,30.03,ESE,123,2.0,-999.0,76,-99.99,,,-99.99,,2013-04-28 20:52:00,
2013-04-28 17:01:00,75.0,66.0,30.03,SE,140,1.0,-999.0,74,-99.99,,,-99.99,,2013-04-28 21:01:00,
2013-04-28 17:11:00,75.0,66.0,30.03,SE,140,1.0,-999.0,74,-99.99,,,-99.99,,2013-04-28 21:11:00,
2013-04-28 17:22:00,74.0,65.0,30.02,East,88,2.0,-999.0,74,-99.99,,,-99.99,,2013-04-28 21:22:00,
2013-04-28 17:33:00,74.0,65.0,30.02,ESE,102,1.0,-999.0,74,-99.99,,,-99.99,,2013-04-28 21:33:00,
2013-04-28 17:42:00,74.0,65.0,30.02,ESE,102,1.0,-999.0,74,-99.99,,,-99.99,,2013-04-28 21:42:00,
2013-04-28 17:52:00,73.0,65.0,30.01,SSE,150,1.0,-999.0,76,-99.99,,,-99.99,,2013-04-28 21:52:00,
2013-04-28 18:03:00,73.0,65.0,30.01,SSW,196,1.0,-999.0,77,-99.99,,,-99.99,,2013-04-28 22:03:00,
2013-04-28 18:13:00,73.0,65.0,30.01,SSW,196,1.0,-999.0,77,-99.99,,,-99.99,,2013-04-28 22:13:00,
2013-04-28 18:23:00,73.0,65.0,30.01,ESE,106,0.0,-999.0,77,-99.99,,,-99.99,,2013-04-28 22:23:00,
2013-04-28 18:33:00,73.0,66.0,30.00,SSE,153,0.0,-999.0,78,-99.99,,,-99.99,,2013-04-28 22:33:00,
2013-04-28 18:42:00,73.0,66.0,30.00,SSE,153,0.0,-999.0,78,-99.99,,,-99.99,,2013-04-28 22:42:00,
2013-04-28 18:52:00,72.0,65.0,30.00,ESE,111,0.0,-999.0,80,-99.99,,,-99.99,,2013-04-28 22:52:00,
2013-04-28 19:02:00,72.0,65.0,30.00,SE,132,0.0,-999.0,80,-99.99,,,-99.99,,2013-04-28 23:02:00,
2013-04-28 19:12:00,72.0,65.0,30.00,SE,132,0.0,-999.0,80,-99.99,,,-99.99,,2013-04-28 23:12:00,
2013-04-28 19:22:00,72.0,66.0,30.00,SE,132,0.0,-999.0,81,-99.99,,,-99.99,,2013-04-28 23:22:00,
2013-04-28 19:32:00,71.0,65.0,30.00,ESE,118,0.0,-999.0,81,-99.99,,,-99.99,,2013-04-28 23:32:00,
2013-04-28 19:42:00,71.0,65.0,30.00,ESE,118,0.0,-999.0,81,-99.99,,,-99.99,,2013-04-28 23:42:00,
2013-04-28 19:52:00,71.0,65.0,30.01,ESE,117,0.0,-999.0,82,-99.99,,,-99.99,,2013-04-28 23:52:00,
2013-04-28 20:01:00,71.0,66.0,30.00,SE,138,0.0,-999.0,83,-99.99,,,-99.99,,2013-04-29 00:01:00,
2013-04-28 20:11:00,71.0,66.0,30.00,SE,138,0.0,-999.0,83,-99.99,,,-99.99,,2013-04-29 00:11:00,
2013-04-28 20:22:00,70.0,65.0,30.00,ESE,119,0.0,-999.0,84,-99.99,,,-99.99,,2013-04-29 00:22:00,
2013-04-28 20:32:00,69.0,65.0,30.00,ESE,119,0.0,-999.0,86,-99.99,,,-99.99,,2013-04-29 00:32:00,
2013-04-28 20:42:00,69.0,65.0,30.00,ESE,119,0.0,-999.0,86,-99.99,,,-99.99,,2013-04-29 00:42:00,
2013-04-28 20:52:00,68.0,64.0,29.99,ESE,119,0.0,-999.0,88,-99.99,,,-99.99,,2013-04-29 00:52:00,
2013-04-28 21:01:00,68.0,64.0,29.99,ESE,120,0.0,-999.0,88,-99.99,,,-99.99,,2013-04-29 01:01:00,
2013-04-28 21:12:00,68.0,65.0,29.98,ESE,120,0.0,-999.0,89,-99.99,,,-99.99,,2013-04-29 01:12:00,
2013-04-28 21:21:00,68.0,65.0,29.98,ESE,120,0.0,-999.0,89,-99.99,,,-99.99,,2013-04-29 01:21:00,
2013-04-28 21:32:00,67.0,64.0,29.99,ESE,119,0.0,-999.0,89,-99.99,,,-99.99,,2013-04-29 01:32:00,
2013-04-28 21:42:00,67.0,64.0,29.99,ESE,119,0.0,-999.0,89,-99.99,,,-99.99,,2013-04-29 01:42:00,
2013-04-28 21:52:00,67.0,64.0,30.00,ESE,119,0.0,-999.0,89,-99.99,,,-99.99,,2013-04-29 01:52:00,
2013-04-28 22:02:00,67.0,64.0,30.00,ESE,119,0.0,-999.0,89,-99.99,,,-99.99,,2013-04-29 02:02:00,
2013-04-28 22:11:00,67.0,64.0,30.00,ESE,119,0.0,-999.0,89,-99.99,,,-99.99,,2013-04-29 02:11:00,
2013-04-28 22:22:00,67.0,64.0,30.00,ESE,120,0.0,-999.0,89,-99.99,,,-99.99,,2013-04-29 02:22:00,
2013-04-28 22:32:00,67.0,64.0,30.01,ESE,120,0.0,-999.0,89,-99.99,,,-99.99,,2013-04-29 02:32:00,
2013-04-28 22:42:00,67.0,64.0,30.01,ESE,120,0.0,-999.0,89,-99.99,,,-99.99,,2013-04-29 02:42:00,
2013-04-28 22:52:00,67.0,64.0,30.01,ESE,120,0.0,-999.0,90,-99.99,,,-99.99,,2013-04-29 02:52:00,
2013-04-28 23:01:00,67.0,64.0,30.01,ESE,119,0.0,-999.0,90,-99.99,,,-99.99,,2013-04-29 03:01:00,
2013-04-28 23:12:00,67.0,64.0,30.01,ESE,119,0.0,-999.0,90,-99.99,,,-99.99,,2013-04-29 03:12:00,
2013-04-28 23:21:00,67.0,64.0,30.01,ESE,119,0.0,-999.0,91,-99.99,,,-99.99,,2013-04-29 03:21:00,
2013-04-28 23:33:00,67.0,64.0,30.01,ESE,120,0.0,-999.0,91,-99.99,,,-99.99,,2013-04-29 03:33:00,
2013-04-28 23:42:00,67.0,64.0,30.01,ESE,120,0.0,-999.0,91,-99.99,,,-99.99,,2013-04-29 03:42:00,
2013-04-28 23:52:00,67.0,65.0,30.01,ESE,120,0.0,-999.0,92,-99.99,,,-99.99,,2013-04-29 03:52:00,